Simultaneous Nadir Overpasses (SNOs) Predictions

Prediction of SNOs between NOAA-19 and TERRA Satellite Orbit:

Table of predicted SNOs for the next 14.0 days since TLE Epoch: 9/3/2022
Index Date (NOAA-19) Time (NOAA-19) Lat,Lon (NOAA-19) SZA (NOAA-19 ) Date (TERRA) Time (TERRA) Lat,Lon (TERRA) SZA (TERRA ) Distance(km) Time Diff (sec)
1 09/03/2022 07:35:13 -80.85, -77.73 104.90 09/03/2022 07:35:17 -80.86, -77.82 104.90 1.75 4
2 09/05/2022 13:08:01 80.86, 18.55 75.90 09/05/2022 13:08:56 80.84, 18.57 75.91 1.85 55
3 09/05/2022 13:59:04 -80.85,-173.76 104.05 09/05/2022 13:58:23 -80.84,-173.81 104.08 1.50 41
4 09/07/2022 19:31:52 80.85, -77.02 76.80 09/07/2022 19:32:02 80.85, -77.15 76.78 2.35 10
5 09/10/2022 01:04:48 -80.86, 19.66 102.36 09/10/2022 01:05:42 -80.85, 19.48 102.36 3.06 54
6 09/10/2022 01:55:44 80.85,-172.98 77.67 09/10/2022 01:55:08 80.85,-172.91 77.66 1.30 36
7 09/12/2022 07:28:40 -80.86, -76.48 101.50 09/12/2022 07:28:48 -80.85, -76.30 101.48 3.22 8
8 09/14/2022 13:01:29 80.86, 20.24 79.37 09/14/2022 13:02:27 80.85, 20.17 79.38 2.01 58
9 09/14/2022 13:52:31 -80.86,-172.29 100.60 09/14/2022 13:51:54 -80.85,-172.14 100.61 2.81 37



Historial Predications of SNOs between NOAA-19 and TERRA
